Regional Weather Roundup
Issued by NWS

Home | Current Version | Previous Version | Graphics & Text | Print | Product List | Glossary On
Versions: 1 2 3 4 5 6 7 8 9 10 11 12 13 14 15 16 17 18 19 20 21 22 23 24 25 26 27 28 29 30 31 32 33 34 35 36 37 38 39 40 41 42 43 44 45 46 47 48 49 50
000
ASUS43 KLOT 222303
RWRIL

ILLINOIS REGIONAL WEATHER ROUNDUP
NATIONAL WEATHER SERVICE CHICAGO/ROMEOVILLE IL
500 PM CST MON JAN 22 2018

NOTE: "FAIR" INDICATES FEW OR NO CLOUDS BELOW 12,000 FEET WITH NO
SIGNIFICANT WEATHER AND/OR OBSTRUCTIONS TO VISIBILITY.

* THESE STATIONS ARE NOT UNDER NWS QUALITY CONTROL. THEY ALSO MAY NOT
  REPORT WEATHER SUCH AS PRECIPITATION OR FOG.

ILZ001-002-007-009-015-016-024-230000-
NORTHWEST ILLINOIS

CITY           SKY/WX    TMP DP  RH WIND       PRES   REMARKS
MOLINE         CLOUDY    45  30  55 W12       29.47R
STERLING*      LGT RAIN  46  40  79 MISG        N/A
$$

ILZ003-004-008-010-011-017-018-230000-
NORTH CENTRAL ILLINOIS

CITY           SKY/WX    TMP DP  RH WIND       PRES   REMARKS
ROCKFORD       TSTM      48  44  86 N7        29.43R
FREEPORT*      FOG       40  40 100 NW9       29.44R VSB 1/2
DE KALB*       FAIR      49  46  88 S10       29.42S
$$

ILZ005-006-012>014-019>023-230000-
NORTHEAST ILLINOIS

CITY           SKY/WX    TMP DP  RH WIND       PRES   REMARKS
CHICAGO-OHARE  FAIR      50  45  83 S12       29.44R
CHICAGO-MIDWAY MOCLDY    53  47  79 S10G20    29.45S
AURORA         MOCLDY    51  48  89 SE13      29.42F
LANSING*       FAIR      50  47  92 S14G20    29.48R
JOLIET*        MOCLDY    53  49  86 SE6       29.44S
WAUKEGAN       MOCLDY    46  45  96 E6        29.44S
DUPAGE AIRPORT MOCLDY    50  48  93 S12       29.42F
KANKAKEE*      MOCLDY   N/A N/A N/A S10       29.47S
WHEELING       FAIR      52  47  83 S10       29.45S
MORRIS*        MOCLDY    51  47  87 S12       29.42F
NORTHERLY ISL    N/A     52  45  77 S14         N/A
$$

LMZ740>746-230000-
SOUTHERN LAKE MICHIGAN

STATION/POSITION SKY/WX   TEMP    WIND        PRES    VSBY  WAVE
                          AIR SEA DIR/SP/G                  HT/PER
                          (F)     (DEG/KT/KT) (MB)    (MI)  (FT/S)
HARRISON CRIB              50     190/ 17/ 19   N/A
BURNHAM HARBOR             52     190/  7/ 16   N/A
CALUMET HARBOR             52     170/ 12/ 15  997.4R
BURNS HARBOR               52     190/ 16/ 20  999.0S
MICHIGAN CITY              51     160/ 12/ 15   N/A
$$

ILZ025>027-034>036-040-047-049-050-058-095>099-230000-
WEST-CENTRAL ILLINOIS

CITY           SKY/WX    TMP DP  RH WIND       PRES   REMARKS
QUINCY         CLOUDY    41  30  65 S16G25    29.50R
MACOMB*        MOCLDY    42  31  66 SW13      29.52R
JACKSONVILLE*  CLOUDY    43  28  56 SW21G33   29.52R
PITTSFIELD*    CLOUDY    43  31  62 S16G25    29.53S
$$

ILZ028>032-037-038-041>044-048-051>054-059>061-230000-
CENTRAL ILLINOIS

CITY           SKY/WX    TMP DP  RH WIND       PRES   REMARKS
BLOOMINGTON    LGT RAIN  45  41  86 W15G25    29.49R
DECATUR        LGT RAIN  50  40  68 W22G40    29.50R
PEORIA         LGT RAIN  45  33  63 W16G32    29.50R
LACON*         RAIN      43  38  83 W7G17     29.48R
SPRINGFIELD    LGT RAIN  46  34  62 W22G29    29.52R
TAYLORVILLE    NOT AVBL
$$

ILZ033-039-045-046-055>057-062-063-230000-
EAST-CENTRAL ILLINOIS

CITY           SKY/WX    TMP DP  RH WIND       PRES   REMARKS
CHAMPAIGN      FAIR      51  47  86 S15       29.47R
DANVILLE*      FAIR      51  46  83 S13G18    29.47S
MATTOON        MOCLDY    54  39  57 S14G24    29.48R
$$

ILZ079-100>102-230000-
SOUTHWEST ILLINOIS

CITY           SKY/WX    TMP DP  RH WIND       PRES   REMARKS
ALTON          MOCLDY    46  32  57 W21G32    29.56R
BELLEVILLE     MOCLDY    50  28  43 SW22      29.55R
CAHOKIA*       MOCLDY    48  27  44 SW21G32   29.57R
SPARTA*        CLOUDY    51  32  47 W18G24    29.58R
$$

ILZ064>066-069>071-074>076-080>082-084>086-088>090-092>094-230000-
SOUTH-CENTRAL ILLINOIS

CITY           SKY/WX    TMP DP  RH WIND       PRES   REMARKS
CARBONDALE     FAIR      53  33  46 SW28G43   29.58R
CAIRO*         FAIR      53  35  51 SW22G36   29.65R
EFFINGHAM*     FAIR      55  38  52 S10       29.52R
MARION         PTCLDY    54  34  47 SW17G25   29.59R
MT. VERNON     FAIR      52  37  56 SW20      29.55R
CENTRALIA*     RAIN      52  40  64 S18G25    29.53R
SALEM*         MOCLDY    56  38  51 SW24G32   29.53R
$$

ILZ067-068-072-073-078-083-087-091-230000-
SOUTHEAST ILLINOIS

CITY           SKY/WX    TMP DP  RH WIND       PRES   REMARKS
LAWRENCEVILLE  FAIR      54  49  83 S16       29.54S
FLORA*         FAIR      55  39  54 S18G25    29.53R
FAIRFIELD*     FAIR      54  38  54 S12G18    29.54S
HARRISBURG*    MOCLDY    56  37  50 SW24G38   29.58S
ROBINSON*      FAIR      54  48  81 S12       29.53S
CARMI*         MOCLDY    57  38  48 SW24G33   29.57R
$$

ABBREVIATIONS USED IN REMARKS
   TC - TEMPERATURE IN CELSIUS
  WCI - WIND CHILL INDEX
   HX - HEAT INDEX
  VSB - VISIBILITY
$$





USA.gov is the U.S. government's official web portal to all federal, state and local government web resources and services.